OneWeb SL0368

operational
NORAD ID: 49294 Int'l Des: 2021-090 Owner: ONEWEBN Country: UK Constellation: oneweb
LEOCIRCULARPOLARONEWEB_TYPE

关于 OneWeb SL0368

正在加载描述...

实时位置

正在加载3D地球...

即将过境

高度历史

Altitude vs Time

uPlot chart will show altitude changes over time

两行轨道根数

1 49294U 21090R 25258.21482500 -.00000024 00000-0 -90765-4 0 9993
2 49294 87.9266 329.2910 0001723 73.3703 286.7619 13.20772167194683
Epoch: Sep 15, 2025 • Age: 12 hours

当前状态

高度 1191.5 km
速度 7.26 km/s
星下点 61.73°N, 99.46°W
发射日期 Oct 14, 2021
运行时间 3.9 years
类型 internet

技术详情

分类 Payload
质量 148.00 kg
干质量 140.00 kg
总质量 148.00 kg
长度 1.30 m
直径 1.00 m
跨度 5.00 m
形状 Trapezoid+2 pan
制造商 ONEWUS
平台类型 ARROW
阶段状态 In Orbit
所有者/国家 ONEWEBN/UK

大型星座

Loading constellations...